Terminal Aerodrome Forecast
Issued by NWS Charleston, WV

Home | Current Version | Previous Version | Text Only | Print | Product List | Glossary On
Versions: 1 2 3 4 5 6 7 8 9 10 11 12 13 14 15 16 17 18 19 20 21 22 23 24 25 26 27 28 29 30 31
000
FTUS41 KRLX 230917 AAD
TAFHTS
TAF AMD
KHTS 230917Z 2309/2406 00000KT 3SM BR SCT004 BKN070
      TEMPO 2309/2310 BKN004
     FM231000 00000KT P6SM SCT070 BKN250
     FM231300 17007KT P6SM BKN250
     FM231700 21009G16KT P6SM SCT030
     FM232100 21008KT P6SM BKN035
     FM232300 23006KT P6SM BKN025
     FM240000 24005KT P6SM BKN015
     FM240200 24004KT P6SM OVC015
     FM240300 25003KT P6SM OVC007
     FM240500 26003KT 4SM BR BKN006=

USA.gov is the U.S. government's official web portal to all federal, state and local government web resources and services.